When you browse on this site, cookies collect data to enhance your experience and personalize the content and advertising you see.
Visit our Privacy Policy to learn more. By continuing to use the site, you agree to this use of cookies and data.
  • En España
  • Lista de países
  • Para 7 días
  • Temperatura del agua
  • Mapa Satelital
  • El tiempo en el mapa
  • Informadores
  • user-avatar
    Iniciar sesión

    Tiempo cada hora Rebordosa

    Hoy, 15 Diciembre, Sábado

    Tiempo Temperatura Precipitaciones Viento Presión Humedad
    00:00 +10°C° 0.3 mm 4 mps 738 mmHg 92%
    01:00 +10°C° 0.3 mm 4 mps 738 mmHg 93%
    02:00 +10°C° 0.3 mm 4 mps 738 mmHg 93%
    03:00 +10°C° 0.1 mm 4 mps 738 mmHg 93%
    04:00 +10°C° 0.1 mm 4 mps 737 mmHg 93%
    05:00 +10°C° 0 mm 3 mps 737 mmHg 93%
    06:00 +10°C° 0.1 mm 4 mps 738 mmHg 93%
    07:00 +10°C° 0.1 mm 4 mps 738 mmHg 93%
    08:00 +11°C° 0.1 mm 4 mps 738 mmHg 93%
    09:00 +10°C° 0.2 mm 5 mps 738 mmHg 92%
    10:00 +10°C° 0.2 mm 5 mps 737 mmHg 92%
    11:00 +12°C° 0.2 mm 5 mps 737 mmHg 91%
    12:00 +12°C° 0.3 mm 5 mps 737 mmHg 92%
    13:00 +12°C° 0.3 mm 5 mps 736 mmHg 93%
    14:00 +12°C° 0.3 mm 5 mps 736 mmHg 93%
    15:00 +11°C° 2 mm 6 mps 736 mmHg 94%
    16:00 +11°C° 2 mm 6 mps 735 mmHg 94%
    17:00 +11°C° 2 mm 6 mps 735 mmHg 94%
    18:00 +12°C° 3.8 mm 5 mps 735 mmHg 95%
    19:00 +12°C° 3.8 mm 4 mps 735 mmHg 96%
    20:00 +12°C° 3.8 mm 4 mps 735 mmHg 97%
    21:00 +12°C° 2.1 mm 3 mps 735 mmHg 97%
    22:00 +13°C° 2.1 mm 2 mps 735 mmHg 98%
    23:00 +13°C° 2.1 mm 2 mps 735 mmHg 98%

    Mañana, 16 Diciembre, Domingo

    Tiempo Temperatura Precipitaciones Viento Presión Humedad
    00:00 +13°C° 0.6 mm 2 mps 734 mmHg 97%
    01:00 +13°C° 0.6 mm 1 mps 734 mmHg 97%
    02:00 +12°C° 0.6 mm 1 mps 734 mmHg 97%
    03:00 +12°C° 1 mm 1 mps 734 mmHg 95%
    04:00 +12°C° 1 mm 2 mps 734 mmHg 94%
    05:00 +10°C° 1 mm 2 mps 733 mmHg 93%
    06:00 +10°C° 0.2 mm 2 mps 734 mmHg 92%
    07:00 +10°C° 0.2 mm 3 mps 734 mmHg 91%
    08:00 +10°C° 0.2 mm 3 mps 735 mmHg 90%
    09:00 +10°C° 0.3 mm 4 mps 735 mmHg 86%
    10:00 +10°C° 0.3 mm 5 mps 736 mmHg 83%
    11:00 +10°C° 0.3 mm 6 mps 736 mmHg 80%
    12:00 +10°C° 0.5 mm 5 mps 736 mmHg 80%
    13:00 +10°C° 0.5 mm 5 mps 737 mmHg 80%
    14:00 +10°C° 0.5 mm 5 mps 737 mmHg 79%
    15:00 +10°C° 0.1 mm 4 mps 737 mmHg 82%
    16:00 +9°C° 0.1 mm 3 mps 738 mmHg 85%
    17:00 +8°C° 0.1 mm 2 mps 738 mmHg 87%
    18:00 +8°C° 0 mm 2 mps 739 mmHg 88%
    19:00 +8°C° 0 mm 1 mps 739 mmHg 88%
    20:00 +8°C° 0 mm 1 mps 740 mmHg 89%
    21:00 +8°C° 0 mm 1 mps 740 mmHg 89%
    22:00 +7°C° 0 mm 1 mps 740 mmHg 90%
    23:00 +7°C° 0 mm 1 mps 740 mmHg 90%

    Pasado mañana, 17 Diciembre, Lunes

    Tiempo Temperatura Precipitaciones Viento Presión Humedad
    00:00 +7°C° 0 mm 1 mps 740 mmHg 90%
    01:00 +6°C° 0 mm 2 mps 740 mmHg 90%
    02:00 +6°C° 0 mm 2 mps 740 mmHg 90%
    03:00 +6°C° 0 mm 2 mps 740 mmHg 89%
    04:00 +6°C° 0 mm 2 mps 740 mmHg 89%
    05:00 +6°C° 0 mm 2 mps 740 mmHg 88%
    06:00 +6°C° 0 mm 2 mps 740 mmHg 87%
    07:00 +6°C° 0 mm 2 mps 740 mmHg 86%
    08:00 +6°C° 0 mm 2 mps 741 mmHg 85%
    09:00 +8°C° 0 mm 3 mps 741 mmHg 81%
    10:00 +9°C° 0 mm 3 mps 740 mmHg 77%
    11:00 +10°C° 0 mm 3 mps 740 mmHg 73%
    12:00 +11°C° 0 mm 3 mps 740 mmHg 71%
    13:00 +11°C° 0 mm 3 mps 739 mmHg 70%
    14:00 +11°C° 0 mm 3 mps 738 mmHg 68%
    15:00 +10°C° 0 mm 3 mps 738 mmHg 73%
    16:00 +9°C° 0 mm 3 mps 738 mmHg 77%
    17:00 +8°C° 0 mm 3 mps 738 mmHg 81%
    18:00 +8°C° 0 mm 3 mps 738 mmHg 82%
    19:00 +7°C° 0 mm 3 mps 738 mmHg 83%
    20:00 +7°C° 0 mm 3 mps 738 mmHg 84%
    21:00 +7°C° 0 mm 3 mps 737 mmHg 82%
    22:00 +6°C° 0 mm 4 mps 737 mmHg 81%
    23:00 +6°C° 0 mm 4 mps 736 mmHg 80%

    18 Diciembre, Martes

    Tiempo Temperatura Precipitaciones Viento Presión Humedad
    00:00 +6°C° 0 mm 4 mps 736 mmHg 79%
    01:00 +6°C° 0 mm 5 mps 735 mmHg 78%
    02:00 +6°C° 0 mm 5 mps 735 mmHg 76%
    03:00 +6°C° 0 mm 5 mps 734 mmHg 75%
    04:00 +6°C° 0 mm 5 mps 733 mmHg 74%
    05:00 +6°C° 0 mm 5 mps 732 mmHg 72%
    06:00 +7°C° 0 mm 6 mps 732 mmHg 71%
    07:00 +6°C° 0 mm 7 mps 731 mmHg 70%
    08:00 +6°C° 0 mm 7 mps 731 mmHg 69%
    09:00 +8°C° 1.9 mm 7 mps 731 mmHg 73%
    10:00 +8°C° 1.9 mm 7 mps 730 mmHg 77%
    11:00 +9°C° 1.9 mm 7 mps 730 mmHg 80%
    12:00 +9°C° 3.9 mm 5 mps 731 mmHg 85%
    13:00 +8°C° 3.9 mm 4 mps 731 mmHg 90%
    14:00 +9°C° 3.9 mm 3 mps 731 mmHg 94%
    15:00 +8°C° 0.3 mm 3 mps 732 mmHg 93%
    16:00 +8°C° 0.3 mm 3 mps 732 mmHg 92%
    17:00 +8°C° 0.3 mm 2 mps 733 mmHg 91%
    18:00 +8°C° 0.1 mm 2 mps 734 mmHg 90%
    19:00 +7°C° 0.1 mm 2 mps 734 mmHg 89%
    20:00 +7°C° 0.1 mm 2 mps 735 mmHg 89%
    21:00 +7°C° 0.2 mm 2 mps 735 mmHg 89%
    22:00 +7°C° 0.2 mm 2 mps 735 mmHg 90%
    23:00 +7°C° 0.2 mm 3 mps 736 mmHg 91%

    19 Diciembre, Miércoles

    Tiempo Temperatura Precipitaciones Viento Presión Humedad
    00:00 +7°C° 0.5 mm 3 mps 736 mmHg 91%
    01:00 +7°C° 0.5 mm 3 mps 736 mmHg 91%
    02:00 +7°C° 0.5 mm 3 mps 736 mmHg 92%
    03:00 +7°C° 0.3 mm 3 mps 736 mmHg 92%
    04:00 +7°C° 0.3 mm 3 mps 736 mmHg 93%
    05:00 +7°C° 0.3 mm 2 mps 736 mmHg 93%
    06:00 +7°C° 0.5 mm 3 mps 737 mmHg 93%
    07:00 +7°C° 0.5 mm 3 mps 737 mmHg 92%
    08:00 +8°C° 0.5 mm 3 mps 738 mmHg 92%
    09:00 +7°C° 0.4 mm 4 mps 738 mmHg 87%
    10:00 +8°C° 0.4 mm 4 mps 738 mmHg 83%
    11:00 +9°C° 0.4 mm 5 mps 739 mmHg 78%
    12:00 +10°C° 0.1 mm 4 mps 738 mmHg 76%
    13:00 +10°C° 0.1 mm 4 mps 738 mmHg 73%
    14:00 +10°C° 0.1 mm 4 mps 738 mmHg 70%
    15:00 +9°C° 0 mm 3 mps 739 mmHg 74%
    16:00 +8°C° 0 mm 2 mps 739 mmHg 78%
    17:00 +6°C° 0 mm 2 mps 740 mmHg 82%
    18:00 +7°C° 0 mm 1 mps 740 mmHg 82%
    19:00 +7°C° 0 mm 1 mps 740 mmHg 83%
    20:00 +7°C° 0 mm 1 mps 741 mmHg 83%
    21:00 +7°C° 0 mm 1 mps 741 mmHg 84%
    22:00 +7°C° 0 mm 1 mps 741 mmHg 85%
    23:00 +7°C° 0 mm 1 mps 741 mmHg 85%

    20 Diciembre, Jueves

    Tiempo Temperatura Precipitaciones Viento Presión Humedad
    00:00 +7°C° 0 mm 1 mps 741 mmHg 87%
    01:00 +7°C° 0 mm 1 mps 741 mmHg 88%
    02:00 +7°C° 0 mm 1 mps 741 mmHg 90%
    03:00 +6°C° 0 mm 1 mps 741 mmHg 90%
    04:00 +6°C° 0 mm 1 mps 742 mmHg 91%
    05:00 +6°C° 0 mm 1 mps 742 mmHg 91%
    06:00 +7°C° 0 mm 1 mps 742 mmHg 91%
    07:00 +7°C° 0 mm 1 mps 743 mmHg 90%
    08:00 +7°C° 0 mm 1 mps 743 mmHg 90%
    09:00 +9°C° 0 mm 1 mps 743 mmHg 83%
    10:00 +10°C° 0 mm 1 mps 743 mmHg 77%
    11:00 +12°C° 0 mm 1 mps 743 mmHg 70%
    12:00 +12°C° 0 mm 1 mps 743 mmHg 69%
    13:00 +12°C° 0 mm 1 mps 743 mmHg 68%
    14:00 +12°C° 0 mm 1 mps 742 mmHg 66%
    15:00 +11°C° 0 mm 1 mps 742 mmHg 72%
    16:00 +10°C° 0 mm 1 mps 743 mmHg 78%
    17:00 +7°C° 0 mm 0 mps 743 mmHg 84%
    18:00 +8°C° 0 mm 1 mps 743 mmHg 85%
    19:00 +8°C° 0 mm 1 mps 743 mmHg 86%
    20:00 +7°C° 0 mm 1 mps 743 mmHg 87%
    21:00 +7°C° 0 mm 1 mps 743 mmHg 87%
    22:00 +7°C° 0 mm 1 mps 743 mmHg 87%
    23:00 +7°C° 0 mm 1 mps 744 mmHg 87%
    Mostrar más